Wind_Speed
13 13 13 14 14 15 15 16 16 17 18 18 17 16 14 13 13 13 13 13 13 14 16 17 19 21 21 21 20 19 20 23 24 23 21 20 20 20 19 19 19 18 17 16 15 15 15 16 15 14 14 14 14 15 15 15 15 13 12 11 11 10 10 9 8 7 6 5 4 5 5 5 5 5 5 5 5 6 6 5 5 4 4 3 3
12 12 12 13 14 14 15 15 16 16 17 16 16 15 14 13 13 13 12 12 12 13 14 16 18 20 22 21 20 20 20 21 24 25 24 22 22 21 20 19 20 19 18 17 16 15 16 16 15 15 14 14 14 14 15 16 15 14 12 11 11 10 10 9 8 7 6 6 6 5 5 5 5 5 5 5 5 6 6 5 4 4 3 3 4
11 12 12 12 13 13 14 14 14 15 15 14 14 14 13 13 14 13 13 13 13 14 14 16 18 19 21 21 21 20 20 21 23 25 25 24 23 22 21 20 19 19 18 17 17 16 16 16 16 15 15 15 14 14 15 16 16 15 13 12 11 11 10 9 8 7 7 7 7 6 6 5 5 5 5 5 5 6 6 5 3 3 3 3 4
12 12 12 13 12 12 12 12 13 14 14 14 14 14 14 14 14 14 15 15 15 15 15 16 17 18 20 21 21 21 20 21 22 24 26 25 24 24 23 21 20 19 19 18 18 17 16 16 16 16 15 15 14 15 15 16 16 15 14 13 12 11 11 10 9 8 8 8 8 7 6 6 6 6 5 5 5 5 5 4 3 3 3 3 4
12 13 13 13 12 11 10 11 12 14 15 15 14 14 14 14 14 15 15 16 16 16 16 15 15 17 18 20 21 21 20 21 21 23 25 25 25 25 24 23 20 19 20 19 18 18 17 16 15 16 16 15 15 14 15 16 16 16 15 13 12 12 11 11 10 9 9 9 9 8 7 6 6 6 6 5 5 5 5 4 3 3 3 3 3
13 13 13 13 12 11 10 10 12 15 16 15 15 15 15 15 15 15 15 16 16 15 16 16 16 16 17 18 19 20 20 20 21 22 24 25 25 25 25 24 22 20 20 20 19 19 17 17 16 16 16 16 15 15 15 16 16 16 15 14 13 12 12 11 11 10 9 10 10 9 7 6 6 7 6 5 5 4 4 4 3 3 3 3 3
13 13 13 13 13 12 11 11 13 15 16 16 15 15 15 15 15 15 15 16 15 15 15 15 16 16 16 17 18 19 20 20 21 21 22 23 25 25 24 24 23 21 20 20 20 20 19 18 18 17 16 16 16 15 16 16 16 16 16 15 14 13 13 12 12 11 10 10 10 9 8 7 6 7 7 6 4 4 4 4 4 4 4 4 4
13 13 13 13 13 13 12 13 14 16 16 16 16 15 15 15 15 15 15 16 16 16 16 15 15 16 16 17 18 19 20 20 20 20 20 21 23 23 23 21 21 20 19 20 21 21 20 19 20 19 18 17 16 16 16 16 16 16 16 16 15 14 13 13 13 12 11 11 10 9 9 7 7 7 7 6 5 4 5 5 5 5 5 5 4
13 13 14 14 14 14 14 15 16 17 17 17 16 15 15 14 14 14 15 16 17 17 17 17 17 16 16 17 18 18 19 20 20 20 20 20 21 22 22 20 19 19 18 19 21 21 21 21 21 21 20 19 17 17 17 17 17 17 17 16 16 15 14 14 14 13 12 12 11 10 10 8 7 8 8 7 5 5 5 6 6 6 5 5 5
13 13 14 14 15 15 15 16 16 16 17 17 16 15 15 14 14 15 16 17 17 18 18 18 17 17 17 17 17 18 19 20 20 20 20 20 20 21 22 21 20 20 19 19 20 21 22 22 22 22 22 21 19 19 19 19 19 18 18 17 16 15 15 15 15 14 13 12 12 11 10 9 8 8 8 8 6 6 6 6 6 6 6 6 5
13 14 14 14 15 16 16 16 16 17 17 16 15 15 14 14 15 15 16 16 17 17 17 17 17 17 18 18 17 18 19 19 20 21 21 20 21 21 22 22 22 22 22 20 20 22 23 24 24 23 24 24 22 21 20 20 20 20 19 18 17 16 15 15 16 16 14 13 12 12 11 10 9 9 9 8 7 7 6 6 7 7 7 6 6
14 14 15 15 16 16 17 17 18 18 17 16 15 14 14 14 15 15 16 16 16 16 16 16 17 17 18 18 18 18 19 19 20 21 21 21 21 22 22 23 23 23 24 22 21 22 24 25 26 26 25 25 25 24 22 21 22 21 20 19 18 16 16 16 17 17 16 14 13 13 12 11 9 9 9 9 8 7 7 7 7 7 7 7 6
15 15 16 16 16 17 18 18 18 18 17 15 15 14 14 14 15 16 16 16 17 17 17 17 17 17 18 18 18 18 19 20 20 21 21 21 21 21 22 24 24 24 25 25 24 24 24 25 27 28 28 27 27 26 25 23 22 23 22 21 20 18 16 17 18 18 17 15 14 14 13 12 10 10 10 10 9 8 8 7 8 8 8 7 7
15 15 16 16 16 17 17 17 17 17 16 15 14 13 13 14 15 16 17 17 18 18 18 18 17 17 18 18 18 19 19 20 20 21 21 21 21 21 22 23 25 25 26 26 26 26 26 26 26 28 29 29 28 28 27 25 24 24 24 23 22 21 18 18 18 18 18 17 15 15 14 13 11 10 10 10 10 9 9 8 8 8 8 8 7
16 16 16 16 16 16 16 17 17 17 17 15 14 13 13 14 15 16 17 18 19 19 19 18 18 18 18 18 19 20 20 20 20 21 21 21 21 21 21 22 24 25 26 27 27 28 27 28 28 28 29 30 29 29 29 27 25 25 25 25 24 23 21 19 19 19 19 18 17 16 15 14 13 11 11 11 11 10 10 9 9 8 8 8 8
16 16 16 16 16 16 16 17 18 18 17 16 14 13 13 14 15 16 17 18 20 20 20 19 19 18 18 18 19 20 21 22 22 22 22 22 21 21 21 21 22 24 25 26 27 28 28 29 29 29 29 30 30 30 30 29 27 27 26 26 25 24 22 21 20 19 20 19 18 17 16 15 14 13 12 11 11 11 11 10 9 9 9 9 9
16 16 16 16 16 16 17 17 18 18 17 16 15 14 14 14 15 17 18 19 20 21 21 21 20 19 19 19 18 19 21 22 23 24 24 23 23 23 22 21 20 21 24 26 27 28 28 29 29 30 30 29 29 30 31 30 29 28 28 27 26 24 24 22 21 20 20 20 20 19 17 16 15 14 13 12 12 12 12 11 10 9 9 9 10
17 16 16 16 16 16 17 17 18 18 18 17 16 15 15 15 16 17 18 19 20 21 22 22 21 20 19 19 19 19 20 21 22 23 25 25 25 25 25 24 23 22 22 25 27 28 28 29 29 30 31 30 29 29 30 31 31 30 29 28 27 25 25 24 23 21 21 21 21 20 19 18 17 16 14 13 13 13 12 12 11 10 9 10 10
18 17 16 16 16 17 17 17 18 18 18 18 17 17 17 17 17 17 19 19 20 21 21 22 22 21 21 20 20 20 21 22 23 23 24 25 26 27 27 26 26 26 25 24 26 28 28 28 29 30 31 31 31 30 29 31 31 31 30 29 28 27 26 26 25 23 22 22 22 21 20 19 18 17 16 15 14 14 13 13 12 11 10 10 10
18 17 16 16 17 17 17 17 18 18 18 18 18 19 19 19 19 19 19 20 21 21 21 21 21 21 21 21 21 21 22 23 24 24 24 25 26 28 28 28 27 28 28 27 27 28 28 29 29 30 31 32 33 32 31 31 31 31 30 30 30 28 27 28 26 25 24 23 22 22 21 21 19 18 17 16 15 15 14 14 13 12 11 10 10
19 18 18 18 18 18 18 18 18 19 19 19 20 20 21 21 21 21 21 22 22 22 22 22 22 22 22 22 22 22 22 23 24 25 26 26 26 27 29 29 28 28 28 28 28 29 29 29 29 30 30 31 33 34 34 33 31 32 32 32 32 31 29 29 28 27 26 25 24 23 23 22 21 20 19 18 17 16 15 15 14 13 12 11 11
20 20 19 19 19 19 19 20 20 20 20 21 21 22 22 23 23 23 23 23 23 23 24 24 24 24 24 24 23 23 23 24 25 26 26 27 26 27 28 29 29 30 30 29 29 30 31 30 29 30 30 31 32 35 36 35 32 31 33 34 34 33 31 30 30 29 28 27 25 24 24 23 22 21 20 20 18 17 16 16 16 14 13 12 11
20 20 20 20 20 21 21 21 21 21 22 22 23 23 24 24 25 25 25 25 25 25 25 26 25 25 25 25 25 25 25 25 26 26 26 27 27 27 28 29 28 30 31 30 29 30 31 31 30 29 30 30 32 34 36 36 33 31 32 33 33 33 32 30 31 30 29 28 26 26 25 24 23 23 22 21 20 19 18 17 17 16 15 13 13
20 20 20 20 21 22 22 22 23 23 23 23 24 24 25 25 26 26 26 27 27 27 27 27 27 27 26 27 27 26 26 26 27 28 27 27 27 27 28 29 29 29 31 31 30 30 31 32 31 29 29 30 31 32 34 35 34 32 30 31 32 32 32 32 31 31 31 29 28 28 26 24 25 25 23 22 21 20 19 19 18 18 16 15 14
20 20 20 20 21 22 22 23 23 24 24 25 25 26 26 26 27 27 28 28 28 29 29 29 29 29 28 28 28 28 28 28 28 29 29 29 29 29 29 30 30 30 31 32 31 31 31 32 32 30 29 30 30 31 33 34 34 33 30 29 31 33 35 36 34 32 31 31 30 29 28 27 27 26 24 23 23 22 21 20 20 19 18 16 16
21 21 21 21 21 22 23 23 24 25 25 26 26 27 27 27 28 28 29 29 30 30 30 30 30 30 30 30 30 29 29 29 29 30 30 30 30 30 30 30 31 31 32 32 32 32 33 33 32 30 29 30 30 30 32 34 34 34 32 30 30 33 36 37 37 36 34 31 31 31 30 29 29 28 26 25 24 23 22 21 21 20 20 18 17
21 21 21 22 23 23 24 24 25 25 26 27 27 28 28 29 29 29 30 30 31 31 31 31 31 31 31 31 31 31 31 31 31 31 32 32 31 32 32 32 31 32 33 33 33 33 34 34 33 32 30 30 31 31 31 33 35 35 34 31 30 31 35 38 39 38 36 33 32 32 31 31 31 29 28 27 26 25 24 23 22 22 21 20 19
21 21 22 23 24 25 25 25 25 26 26 27 28 29 29 30 30 31 31 31 31 32 32 32 32 32 32 32 32 32 33 33 33 33 33 33 33 33 33 33 32 32 32 33 34 34 35 35 34 33 32 31 31 32 32 32 34 35 34 33 32 31 33 38 41 39 37 34 33 33 32 33 33 31 29 29 27 26 25 24 23 23 22 22 20
22 22 23 24 25 26 27 27 27 27 27 27 28 29 29 30 31 32 32 32 33 33 33 33 33 34 34 34 34 34 34 34 34 34 34 34 34 34 34 35 34 33 33 32 33 35 36 35 35 35 34 33 32 33 33 33 34 36 36 35 34 32 31 35 41 42 39 36 34 34 34 34 34 32 31 30 29 27 26 25 24 24 24 23 22
22 23 24 25 27 28 28 28 28 29 29 29 29 29 30 30 31 32 32 33 34 35 35 35 36 36 36 37 36 36 36 36 35 35 35 34 34 34 35 35 35 35 34 33 32 34 36 36 35 36 35 35 33 33 34 34 34 36 37 35 35 34 31 32 39 44 42 38 36 35 36 36 35 34 32 32 30 29 28 26 25 25 25 24 24
24 25 26 27 28 28 28 28 29 29 30 30 30 31 31 31 31 32 32 33 33 34 35 36 36 37 37 38 38 37 37 36 36 36 35 35 35 35 35 35 36 35 35 35 32 33 36 36 36 36 36 36 35 33 34 34 35 35 36 35 34 34 32 31 37 44 43 41 39 37 38 38 36 35 34 33 31 30 29 28 27 27 26 25 25
26 27 28 28 29 29 29 29 30 30 30 31 31 31 32 32 32 33 33 33 33 34 35 36 36 36 37 38 38 37 37 36 37 37 36 35 35 35 36 36 36 36 36 36 34 32 35 37 36 36 37 37 36 34 34 34 35 35 35 35 34 34 33 31 34 41 45 44 42 40 40 40 38 36 35 34 33 32 30 29 28 28 28 27 26
28 29 29 29 30 30 30 31 31 32 32 32 32 32 33 33 33 34 34 35 35 35 35 35 36 36 36 37 37 37 36 35 36 36 36 36 36 36 36 36 37 37 36 37 35 33 34 37 36 36 37 37 36 35 34 34 35 36 36 36 35 34 33 32 33 39 47 47 44 43 42 41 40 37 36 36 34 33 31 30 29 29 29 29 28
30 30 30 31 31 31 32 32 33 33 33 33 33 34 34 34 35 35 35 36 36 36 36 36 36 36 36 36 37 37 37 36 36 36 36 36 36 36 36 37 37 37 37 37 36 35 35 36 37 37 37 37 37 36 34 34 35 36 36 37 37 35 34 35 36 40 47 49 47 45 44 42 41 38 37 37 36 34 33 31 31 30 30 31 30
31 32 32 32 33 33 34 34 35 35 35 35 35 35 35 35 36 36 36 37 37 37 37 37 37 37 36 37 37 37 38 37 37 37 37 37 37 37 37 37 37 38 38 38 38 37 36 36 36 37 37 37 37 37 34 34 35 36 36 37 38 37 36 37 39 41 46 48 46 45 44 43 42 40 38 38 37 35 34 33 32 32 31 31 31
33 33 34 34 34 35 35 36 36 37 37 37 37 36 36 36 36 37 37 37 37 38 38 38 38 38 38 38 38 39 39 38 38 38 38 38 38 38 38 38 38 38 38 38 39 39 37 36 36 37 38 37 37 37 35 34 35 35 36 37 38 37 35 36 37 39 44 45 44 44 45 44 43 41 38 38 37 36 35 35 34 33 32 32 32
34 35 36 35 36 36 36 37 37 38 38 38 37 37 37 37 37 37 37 38 38 38 39 39 39 39 39 40 40 40 40 39 39 39 39 39 39 39 39 39 39 39 39 39 39 40 39 37 37 37 37 37 36 36 35 34 34 35 34 35 35 35 34 33 32 34 40 43 43 45 46 45 44 42 39 39 38 38 37 36 35 34 33 32 32
35 37 37 38 37 37 38 38 38 38 38 38 37 37 37 37 38 38 38 39 39 40 40 40 40 40 40 40 40 40 40 40 40 39 39 39 39 39 40 40 40 39 39 40 40 40 39 38 38 37 36 37 36 36 35 33 34 35 34 34 34 33 32 31 31 33 37 40 41 44 45 44 44 43 42 41 40 39 38 37 36 35 34 33 33
37 38 39 40 39 39 39 39 39 39 39 38 37 37 37 38 39 39 40 40 40 41 41 41 41 41 40 40 41 41 41 40 40 40 40 40 40 40 40 40 40 40 40 40 41 41 40 39 39 38 37 36 35 35 35 33 33 35 35 34 34 32 31 32 33 33 36 38 39 42 45 45 45 45 44 42 41 40 39 38 37 37 36 35 35
39 40 41 41 41 40 40 40 40 39 38 38 38 38 38 39 40 40 41 41 41 41 42 41 41 41 42 41 41 42 42 42 41 41 41 41 40 40 40 40 41 41 41 41 41 41 41 40 40 40 38 36 35 35 35 34 32 33 35 35 34 32 31 34 37 36 36 38 40 43 46 48 48 48 47 45 43 42 41 40 39 38 38 37 38
40 42 43 42 41 41 41 40 40 39 39 38 38 39 39 40 41 41 42 42 42 42 42 42 42 42 43 43 43 43 43 43 43 42 42 42 41 41 41 41 42 42 41 42 41 41 42 41 40 40 39 37 35 35 35 34 31 32 35 35 34 33 32 34 39 42 40 39 41 43 46 47 48 49 48 46 44 42 41 40 40 39 39 39 40
42 43 43 42 41 41 41 41 40 39 39 39 40 40 41 42 42 42 42 42 43 43 43 43 43 43 44 44 45 45 45 44 44 44 43 43 42 42 41 42 42 42 42 42 42 41 41 41 41 41 40 38 36 36 36 35 32 31 33 35 35 36 35 34 39 45 44 41 42 43 43 44 46 47 47 45 43 42 42 42 41 39 39 40 40
44 44 43 42 41 41 41 40 40 40 40 41 41 42 43 43 43 43 43 43 43 44 44 45 45 46 46 46 46 47 47 47 47 46 45 44 44 43 42 42 42 43 43 43 42 42 42 42 41 42 41 39 37 37 36 36 35 32 32 35 36 36 36 35 37 44 45 41 41 42 41 42 43 45 46 44 43 44 44 44 43 40 40 41 41
44 43 41 41 41 41 41 40 40 40 41 42 42 43 43 43 43 44 44 44 45 45 46 47 47 47 48 48 48 48 49 49 49 49 48 47 46 45 44 44 43 43 43 43 43 42 42 42 41 42 42 40 38 37 37 36 35 33 31 33 35 36 35 34 34 40 43 41 41 41 40 40 41 43 45 45 45 46 47 47 45 41 40 42 41
42 41 41 41 41 40 40 40 40 41 41 42 42 43 43 43 44 45 45 46 46 46 47 48 48 48 49 49 49 49 49 50 50 50 50 49 49 48 47 46 45 45 44 43 43 42 42 41 42 42 43 42 39 38 38 36 34 34 32 31 33 35 34 31 30 36 42 41 40 40 40 41 42 43 45 47 48 48 48 47 45 42 41 42 42
40 40 40 40 40 39 39 39 39 40 40 41 42 42 43 44 44 45 46 46 47 47 48 48 49 49 49 49 50 50 50 50 50 50 50 50 50 50 49 48 48 47 46 44 43 43 42 41 41 42 42 43 41 39 40 38 35 34 33 32 32 33 34 34 31 34 40 43 41 41 41 42 44 45 46 47 48 47 46 46 44 42 41 42 43
38 39 39 39 38 38 38 38 38 39 39 40 41 42 43 43 44 45 46 46 47 48 48 49 49 49 50 50 50 51 51 50 50 51 51 51 51 51 50 49 49 48 47 45 44 44 43 41 41 41 42 43 42 41 41 39 36 33 33 33 32 31 33 37 37 34 36 41 44 44 42 42 43 44 45 45 45 46 45 45 45 43 42 43 46
38 38 38 37 36 36 36 36 37 38 39 40 40 41 42 43 43 44 45 46 46 47 48 49 50 50 51 51 52 52 52 52 52 52 52 52 52 51 51 50 49 48 47 46 45 44 43 42 41 41 41 42 42 42 41 41 37 34 33 33 33 32 32 35 39 37 33 37 43 45 44 43 43 43 44 44 44 45 46 45 45 45 45 48 50
36 35 34 34 34 34 35 35 36 37 38 39 39 40 41 42 42 43 44 45 46 47 48 49 49 50 51 51 52 52 53 53 53 53 52 52 52 51 51 50 49 48 46 45 45 44 43 42 41 41 42 42 42 42 42 42 39 35 33 33 34 33 32 33 37 40 36 36 42 46 46 45 44 44 44 44 45 46 47 48 48 47 47 51 55
33 32 31 32 32 33 34 35 36 37 37 38 38 39 39 40 41 41 42 43 45 46 47 48 48 49 50 50 51 51 51 51 52 52 52 52 51 51 51 50 48 47 46 45 45 44 43 42 41 41 41 41 42 41 42 42 40 36 34 33 34 35 34 32 33 40 42 39 40 43 46 46 45 44 44 44 47 49 49 47 47 47 48 52 57
30 29 30 31 31 32 33 34 35 35 35 36 36 37 38 38 39 40 41 42 43 44 45 46 47 47 48 49 49 50 50 49 48 47 47 48 48 49 49 48 46 46 45 45 44 43 43 42 41 40 40 40 41 41 41 42 41 38 35 33 34 35 36 35 32 35 42 42 38 37 40 43 44 45 45 45 47 50 49 45 46 51 53 54 56
Wind_Direction
308 308 309 310 311 312 312 312 313 312 314 316 317 321 325 327 326 323 318 313 313 312 312 310 310 311 312 315 317 316 315 314 312 308 302 295 291 288 283 278 276 276 280 281 278 275 275 273 272 272 272 273 275 279 280 281 282 283 286 290 294 298 302 304 309 311 308 302 303 308 310 311 315 320 320 315 309 304 304 308 309 309 308 304 298
305 308 310 311 311 312 311 312 314 315 316 317 318 322 325 324 323 322 319 318 318 317 314 311 311 311 312 313 313 313 313 312 311 310 308 302 296 293 287 280 275 275 278 281 279 275 275 275 273 270 270 272 274 276 277 278 279 280 281 286 289 293 297 299 303 304 300 296 300 307 309 309 311 315 316 313 306 302 303 307 306 305 305 303 298
307 309 310 311 311 310 311 314 318 320 321 323 323 324 323 322 321 321 320 320 320 319 315 313 312 312 313 313 312 312 311 311 311 311 310 306 300 296 292 287 278 273 275 279 279 275 273 273 273 271 269 270 272 274 275 275 276 276 277 280 285 289 291 293 295 296 292 291 296 304 307 306 308 311 311 310 305 301 302 304 302 302 306 306 302
308 310 311 311 310 309 310 316 322 324 324 325 324 322 321 321 321 320 320 319 319 317 315 313 313 312 312 314 314 313 311 311 311 311 311 309 304 299 294 291 282 271 270 274 277 274 271 271 271 269 267 266 269 272 274 274 274 272 273 275 279 283 286 287 288 289 287 287 293 300 303 303 305 308 309 308 305 301 299 300 298 301 302 304 303
309 310 311 310 308 305 307 317 325 327 325 322 321 320 319 320 320 320 318 318 319 317 316 316 316 313 311 312 313 314 313 312 312 311 309 308 306 302 296 293 287 274 265 268 272 272 270 270 271 269 266 264 265 269 272 273 272 271 270 270 273 277 280 282 283 283 284 285 290 296 299 299 301 305 307 304 303 299 295 293 290 295 296 296 293
310 311 310 308 305 301 301 314 324 327 325 321 318 317 319 320 321 321 319 319 321 320 319 319 320 317 313 311 311 311 312 312 311 310 309 307 306 303 298 296 295 283 268 264 267 269 267 267 271 271 269 266 265 266 270 271 271 270 269 269 269 272 275 278 279 279 281 284 288 293 294 294 297 302 302 300 298 293 289 286 281 284 286 285 279
311 310 309 306 302 296 295 304 315 321 321 319 316 315 318 320 321 322 321 322 323 323 322 321 320 318 316 313 312 311 311 312 311 310 309 307 307 305 302 300 299 293 276 264 264 266 266 266 268 271 270 269 267 265 267 269 270 269 268 268 268 268 271 274 275 277 279 281 286 291 290 290 294 297 297 295 293 289 284 279 274 273 276 277 266
311 310 307 305 301 295 292 294 303 311 315 315 313 313 315 317 320 322 323 324 324 324 322 320 317 315 314 313 312 312 311 311 310 309 308 307 307 307 306 303 302 299 283 267 264 266 268 267 267 269 270 269 269 267 267 268 269 270 268 266 266 266 268 271 273 274 276 278 283 288 287 285 291 294 292 290 289 284 280 275 272 268 266 267 259
310 308 305 304 301 297 292 291 297 304 309 311 310 311 312 314 318 321 322 323 322 322 321 319 317 315 313 312 311 310 309 309 309 309 308 306 306 306 306 305 303 302 291 273 266 267 270 270 269 268 268 268 269 270 270 269 268 269 268 266 264 264 266 269 272 272 272 275 279 283 283 282 288 293 289 285 282 279 277 275 274 269 261 256 252
307 305 303 302 299 296 293 292 295 300 304 306 306 307 309 312 316 319 320 321 320 320 320 320 320 318 317 315 314 312 310 309 309 310 310 308 306 304 303 301 300 300 297 285 273 268 269 270 270 268 267 266 268 272 273 270 267 267 267 266 262 262 264 267 270 271 270 271 275 278 279 279 284 289 286 282 278 276 276 276 274 270 263 253 245
304 302 301 299 296 294 293 293 295 298 301 301 301 304 308 312 315 318 319 319 319 320 320 321 321 321 320 319 319 317 314 311 310 311 311 309 307 304 301 299 296 295 295 292 283 274 268 267 268 269 268 266 267 272 273 270 267 265 265 264 262 260 262 265 268 269 268 267 270 274 275 278 280 283 282 279 276 275 275 274 272 269 264 255 243
303 302 301 299 296 294 292 292 293 296 297 297 298 302 306 311 315 317 318 318 319 320 321 321 322 321 320 320 320 319 316 314 313 311 310 309 307 304 302 299 295 292 291 292 289 281 273 268 267 267 268 269 268 269 271 270 267 264 262 261 261 260 259 262 265 266 266 264 266 270 272 274 275 278 278 277 275 275 275 273 270 267 263 256 246
302 302 301 299 296 293 291 291 291 293 294 294 296 299 305 309 313 315 317 319 320 321 321 321 321 319 317 317 319 318 317 317 316 313 310 307 305 303 302 300 297 293 290 289 288 285 281 276 271 268 266 267 268 267 267 267 266 264 262 259 259 260 259 259 261 263 264 262 262 266 269 270 271 273 274 273 273 273 273 272 268 265 261 255 247
303 301 299 297 294 292 290 289 290 290 290 291 292 296 302 306 310 314 316 319 321 321 321 320 319 317 317 317 318 319 319 320 319 317 314 311 308 305 302 300 299 297 294 290 288 285 283 281 278 275 270 266 265 264 264 265 264 263 262 260 259 259 259 257 258 261 262 262 260 262 265 266 266 268 269 269 269 269 271 271 267 263 258 252 244
302 301 299 296 294 292 290 289 289 289 289 289 289 293 298 303 307 312 316 319 321 321 321 321 319 317 316 317 319 320 321 322 321 320 319 317 315 312 307 303 300 300 298 295 291 287 284 282 281 280 277 270 263 261 262 262 262 262 262 261 261 260 257 255 256 259 260 261 259 259 262 263 262 263 265 266 265 266 268 269 266 261 256 247 240
301 300 299 295 293 292 290 289 288 288 287 286 286 290 295 300 306 310 315 318 320 322 322 321 319 317 316 317 319 320 322 323 323 322 322 322 321 319 315 311 306 302 300 298 295 291 287 284 281 280 281 277 267 260 259 261 260 260 261 261 261 261 258 255 254 256 258 259 258 257 258 260 260 260 261 262 262 262 264 267 266 260 255 246 238
301 301 299 295 292 290 289 288 287 285 283 282 283 286 291 296 302 308 312 316 319 321 322 321 319 317 315 315 317 319 320 321 321 322 323 324 324 322 321 320 315 308 301 298 296 294 290 287 283 280 280 281 274 264 257 258 259 259 260 260 259 260 259 256 253 254 256 257 257 256 256 257 258 257 258 259 259 260 261 263 264 261 255 249 239
303 303 299 295 291 289 288 287 285 284 282 282 282 285 288 293 299 306 310 313 316 319 320 321 319 317 314 313 314 315 316 317 317 320 321 323 323 321 321 322 321 316 308 301 297 295 293 289 285 281 278 279 279 273 262 257 256 257 258 259 258 258 259 257 253 252 254 255 255 255 254 255 255 255 255 256 257 257 258 260 262 260 256 252 243
305 304 300 295 291 290 289 288 286 284 283 282 282 285 288 291 296 302 307 309 311 313 317 319 318 317 315 314 314 314 314 313 313 315 317 319 319 318 318 318 318 317 313 308 302 297 293 290 286 282 279 277 277 277 272 263 258 257 257 257 258 257 257 257 255 252 252 253 253 253 253 253 253 254 253 253 254 255 256 258 260 259 257 255 249
304 303 300 296 293 292 292 291 289 286 284 283 283 285 287 290 295 300 304 306 307 307 309 312 314 314 314 313 314 314 313 312 312 313 314 315 315 314 314 314 313 312 313 312 308 302 296 291 287 284 281 277 274 273 273 270 264 259 257 256 257 257 257 257 255 252 250 250 251 251 252 251 251 252 252 252 252 253 255 257 258 257 256 256 253
302 302 301 299 296 296 295 295 293 290 288 286 285 286 287 290 294 297 300 303 304 303 303 305 307 308 310 310 311 312 312 312 311 311 311 312 312 312 311 311 311 309 309 310 310 308 302 295 290 285 281 278 274 270 270 271 268 261 257 256 256 257 256 256 255 252 250 249 249 250 250 250 250 251 251 250 250 251 253 255 256 256 255 255 254
300 302 302 301 299 298 297 296 295 294 292 291 290 290 290 291 293 295 297 299 300 300 299 299 300 303 304 306 307 309 310 310 310 309 310 311 310 309 308 309 311 309 307 307 309 309 305 300 293 287 282 277 274 271 269 271 270 263 257 256 256 256 255 256 255 253 250 249 248 248 248 248 249 250 250 250 249 249 251 253 255 255 253 253 253
299 301 302 302 302 300 299 297 296 296 295 294 293 292 292 292 292 294 296 297 298 297 296 295 295 297 299 301 303 305 306 307 308 309 310 309 309 308 306 307 309 309 308 308 309 308 306 304 298 289 282 277 273 272 271 271 271 267 259 254 254 254 255 256 255 253 251 249 248 247 247 247 248 248 249 249 249 248 249 252 254 254 252 251 251
299 302 304 304 303 302 300 298 297 296 296 295 294 293 293 292 293 294 296 297 298 297 296 295 294 294 296 298 300 301 302 304 305 306 307 307 307 307 305 305 307 307 308 309 309 308 308 306 301 293 284 278 273 271 272 272 271 271 265 255 251 252 254 255 255 253 250 248 247 246 246 247 247 246 246 247 248 248 248 250 253 254 252 251 250
298 302 304 304 304 302 300 298 296 296 295 295 295 295 295 295 296 297 298 298 297 297 296 295 294 293 294 295 296 297 298 300 301 302 303 305 306 306 305 305 305 305 306 308 309 309 308 306 304 298 288 280 275 271 271 271 271 271 268 259 251 250 252 253 253 253 251 248 246 246 245 243 243 244 245 246 247 247 246 248 251 253 252 251 250
297 300 303 305 305 304 302 300 298 297 297 297 297 297 298 299 300 300 300 299 297 296 295 294 293 292 292 293 293 294 295 296 297 298 300 302 303 304 305 305 305 305 305 307 308 309 308 307 307 303 293 283 277 272 269 269 269 269 268 264 257 253 252 252 252 251 250 247 245 245 245 243 242 243 244 247 247 246 246 246 248 251 252 251 250
297 301 304 306 307 307 306 304 303 301 300 299 299 299 299 300 301 301 300 298 297 295 293 293 292 291 291 291 292 293 293 294 295 296 297 299 300 302 303 304 304 305 305 305 307 307 307 307 308 306 299 288 278 274 270 268 268 268 266 264 262 261 256 253 251 248 246 246 245 244 245 245 243 242 243 245 246 246 246 245 246 249 251 251 250
296 299 302 305 306 307 307 306 306 305 304 303 302 301 300 300 299 299 298 297 296 295 293 292 292 292 291 291 291 292 292 293 294 294 295 296 298 299 300 301 302 303 303 304 305 304 304 304 306 305 303 294 282 274 270 267 266 266 264 261 262 266 262 253 249 246 244 245 245 244 244 245 243 241 241 243 244 244 245 245 246 248 249 250 249
293 297 300 302 303 304 304 304 304 304 304 304 304 303 301 300 298 297 296 295 295 294 294 293 293 292 292 292 292 292 292 292 293 293 293 294 296 296 297 299 300 301 301 302 304 303 302 302 303 303 303 299 288 275 269 266 264 263 262 262 263 266 266 255 246 243 244 244 243 243 244 244 243 241 240 241 242 243 244 245 246 247 248 249 249
293 296 297 298 299 299 300 300 301 301 302 302 302 302 302 301 300 298 296 295 294 294 293 293 292 292 292 292 292 292 292 292 292 292 292 293 293 294 295 296 297 299 299 300 302 302 300 301 302 301 301 301 293 280 270 265 263 262 262 262 262 262 263 258 245 240 242 242 241 242 244 244 244 242 240 241 241 242 243 243 245 246 248 248 249
294 295 295 295 295 296 296 297 299 299 300 300 300 300 300 299 299 298 297 296 294 293 292 291 291 290 290 291 291 291 291 292 292 292 292 292 292 292 292 293 294 295 296 297 300 301 299 299 299 299 300 301 297 285 273 266 262 262 260 259 260 258 257 257 248 239 239 241 241 242 243 243 243 241 240 241 241 242 242 242 243 245 246 247 248
293 294 294 294 294 295 296 297 298 299 299 298 298 298 298 297 297 296 296 295 294 293 291 291 290 289 289 289 290 290 291 291 292 292 292 291 291 291 291 292 292 293 294 295 297 298 298 297 297 298 298 300 299 289 275 267 262 260 258 256 257 256 253 255 253 243 238 238 240 241 242 242 241 239 239 240 241 242 242 242 242 243 245 246 247
293 294 294 295 296 296 297 297 297 297 297 297 297 297 297 296 295 295 294 293 293 292 291 290 290 290 290 289 290 290 291 291 291 291 292 291 291 291 291 290 290 291 291 292 293 294 295 295 295 296 297 298 299 292 277 266 261 258 257 254 253 254 253 252 253 246 238 235 237 240 241 240 238 237 237 239 241 242 243 243 243 243 245 246 246
293 294 295 296 297 297 297 297 297 297 297 298 298 298 298 297 295 294 293 292 291 290 290 290 290 290 290 290 290 290 291 291 291 291 291 291 291 290 289 289 289 289 289 290 291 292 292 293 293 294 295 296 299 295 280 265 260 257 256 253 251 253 256 254 252 247 240 236 237 238 239 239 238 235 236 238 240 242 243 244 243 243 244 246 246
293 294 296 297 298 298 298 298 299 299 299 300 300 299 298 298 296 295 293 291 290 289 289 289 289 289 288 288 288 288 289 289 289 290 290 290 289 289 288 288 287 287 288 288 289 289 289 291 293 292 293 295 298 297 284 267 259 256 255 253 251 251 256 257 253 246 238 235 235 236 238 239 238 235 234 237 239 241 243 244 244 243 244 246 247
292 294 296 297 298 298 299 299 300 301 301 301 300 300 299 298 297 295 294 292 290 289 288 288 288 287 287 286 286 286 287 287 287 288 288 288 288 287 287 286 286 286 286 286 287 287 287 289 291 291 291 293 295 296 288 271 260 257 255 253 251 251 255 257 252 242 233 229 231 235 237 239 239 237 235 236 238 239 241 243 243 244 244 245 247
291 294 296 297 297 298 298 299 300 300 301 301 300 300 299 298 297 296 294 293 291 289 288 287 286 286 285 285 285 285 285 285 286 286 286 286 286 286 286 285 284 284 284 284 284 284 285 286 287 288 289 290 292 294 291 277 264 259 256 253 251 251 255 255 247 236 229 228 230 233 236 237 238 239 237 235 237 238 240 242 244 244 245 245 247
291 295 297 297 297 298 299 299 300 300 300 300 300 299 299 298 297 296 294 292 290 289 288 287 286 285 285 285 285 285 285 284 284 284 284 284 283 284 284 283 283 282 282 282 282 282 283 283 284 285 286 288 290 293 292 281 265 259 257 254 250 252 256 253 242 232 230 231 231 233 236 237 238 240 241 240 239 239 239 241 243 244 244 244 244
292 296 298 298 298 299 299 300 301 301 301 300 300 299 298 297 296 294 293 291 289 288 287 286 286 285 285 285 285 284 284 283 283 283 282 282 281 281 281 281 281 280 280 280 280 280 281 281 281 283 284 286 288 290 292 283 268 259 258 255 250 253 258 252 241 234 234 234 233 232 234 237 239 242 243 240 238 239 239 240 242 243 244 244 243
292 296 299 299 298 299 300 301 301 301 300 300 300 299 298 297 295 294 292 291 289 288 287 286 286 286 285 285 284 283 283 282 281 281 280 279 279 278 278 278 278 277 277 277 277 278 278 278 279 281 282 284 285 287 289 285 271 259 257 255 250 253 259 252 240 236 235 235 234 233 233 236 240 241 240 239 238 238 238 239 241 242 244 244 244
292 296 298 298 298 299 300 301 301 300 299 299 299 298 297 296 295 294 293 292 291 290 289 288 288 287 287 286 285 284 283 282 281 279 278 278 277 276 275 275 275 275 275 275 275 276 276 276 277 278 280 281 282 283 285 284 275 263 258 257 252 253 259 255 243 236 235 234 234 234 234 235 238 237 238 239 240 240 239 240 241 242 244 244 245
291 295 297 297 298 299 301 300 300 300 300 300 299 299 298 297 296 295 294 293 293 292 292 291 290 290 289 288 287 286 285 283 282 280 279 278 277 275 274 273 273 273 273 273 273 274 274 274 275 276 277 278 279 279 281 282 278 268 260 258 255 252 257 261 250 239 236 235 234 235 236 236 237 237 238 239 240 241 242 241 241 243 244 244 243
292 295 296 296 298 299 300 299 299 300 300 300 300 300 299 298 297 297 296 296 295 295 294 293 292 291 290 288 287 286 285 284 283 282 280 278 277 276 275 273 272 271 271 271 271 271 272 272 273 274 275 275 276 276 278 280 280 274 262 257 257 253 255 263 255 239 235 235 234 235 237 237 238 239 240 240 240 242 244 243 242 242 244 244 243
292 294 295 296 298 298 298 299 300 300 301 301 301 300 300 300 300 300 299 299 298 297 296 294 293 292 290 289 287 285 284 283 282 281 279 278 277 276 275 274 272 272 270 270 269 269 269 270 270 272 272 273 273 274 275 277 279 278 269 260 258 255 254 263 257 237 231 234 233 234 236 238 240 241 241 242 242 241 243 244 243 242 243 244 245
292 294 295 296 297 297 298 299 300 301 301 302 302 302 302 302 302 301 301 300 299 298 296 295 294 292 291 289 288 286 284 282 281 279 277 276 275 274 273 272 271 271 270 270 269 268 267 267 267 269 270 271 272 272 273 274 275 278 276 267 261 255 252 260 256 239 233 234 234 234 235 236 239 240 239 240 241 240 241 244 244 243 243 246 248
292 293 294 295 296 297 299 301 302 303 303 303 303 303 303 303 303 302 302 301 300 299 298 296 295 293 291 290 288 286 284 282 280 279 277 275 273 271 270 269 269 269 269 270 270 269 267 266 265 266 268 270 271 270 271 273 273 274 275 273 267 258 251 252 251 241 237 237 235 235 236 236 238 239 239 239 240 243 243 244 246 245 246 249 250
292 293 294 295 297 300 302 303 304 304 305 305 305 305 305 305 305 304 303 303 302 300 299 298 296 295 293 291 289 286 284 281 279 277 275 274 272 271 269 268 267 267 267 268 269 269 268 266 264 264 265 267 269 270 270 272 272 272 272 273 272 265 256 251 246 242 241 240 237 237 238 239 240 241 242 243 244 244 243 242 244 247 248 249 250
292 293 295 297 300 302 304 304 305 306 306 307 307 307 307 306 306 305 305 304 303 302 300 299 297 296 294 291 289 286 284 281 278 275 273 272 271 270 269 267 266 265 265 266 267 267 267 267 265 263 263 264 265 267 269 270 271 271 270 270 271 270 266 257 246 241 243 241 235 235 238 240 242 243 243 243 243 243 241 239 240 243 245 247 248
292 294 297 300 302 303 305 306 307 307 308 308 308 308 308 307 307 307 306 306 305 304 302 301 300 298 296 293 291 288 285 282 279 276 273 270 269 267 267 266 266 265 264 264 264 264 265 265 264 263 263 263 264 265 267 269 270 270 269 269 269 268 271 266 249 238 239 239 234 233 235 237 238 240 240 240 240 240 239 237 237 239 242 245 245
294 297 300 302 303 305 306 307 308 308 308 309 309 309 309 309 309 309 309 309 309 308 307 306 305 303 301 298 295 291 287 284 281 278 274 271 268 266 265 264 264 263 262 262 262 262 262 262 263 263 263 263 263 264 265 267 269 269 267 267 268 267 270 271 253 234 233 238 236 234 236 237 236 236 237 238 238 237 236 237 240 242 241 242 243
298 300 301 303 304 305 306 307 308 308 309 309 310 311 311 312 312 313 314 314 314 314 313 312 311 309 307 303 300 295 291 287 283 280 276 272 269 266 264 263 262 261 260 260 260 260 260 260 261 261 261 262 263 263 264 266 267 268 267 266 268 269 269 273 265 241 231 233 235 234 236 238 237 235 235 235 236 237 236 235 239 243 242 242 243
Height
5852 5851 5851 5850 5850 5849 5848 5848 5847 5847 5846 5845 5845 5845 5845 5844 5844 5843 5842 5841 5840 5839 5837 5835 5834 5832 5831 5831 5830 5830 5828 5826 5825 5824 5824 5824 5823 5823 5823 5822 5822 5822 5822 5822 5822 5821 5821 5821 5821 5821 5820 5820 5820 5820 5820 5820 5820 5819 5819 5818 5818 5818 5818 5818 5818 5818 5817 5817 5816 5815 5815 5814 5814 5813 5813 5812 5812 5811 5811 5810 5810 5809 5809 5808 5808
5851 5851 5850 5850 5849 5848 5847 5847 5846 5845 5845 5844 5844 5843 5843 5843 5842 5842 5841 5840 5839 5838 5837 5835 5833 5831 5830 5829 5829 5828 5827 5826 5824 5823 5823 5822 5822 5821 5821 5821 5820 5821 5821 5820 5820 5820 5819 5819 5819 5819 5819 5819 5819 5819 5818 5818 5818 5818 5817 5817 5817 5817 5817 5817 5817 5817 5817 5816 5816 5815 5814 5814 5813 5813 5812 5812 5811 5811 5810 5810 5809 5809 5808 5808 5807
5850 5850 5850 5849 5849 5848 5847 5846 5845 5844 5843 5843 5842 5842 5842 5841 5841 5840 5840 5839 5838 5837 5836 5834 5833 5831 5829 5828 5827 5827 5826 5825 5823 5821 5821 5821 5820 5820 5820 5819 5819 5819 5819 5819 5819 5818 5818 5818 5818 5817 5817 5817 5817 5817 5817 5817 5817 5816 5816 5816 5816 5816 5816 5816 5816 5816 5816 5815 5815 5814 5814 5813 5813 5812 5812 5811 5811 5810 5810 5809 5809 5808 5808 5808 5807
5850 5849 5849 5849 5848 5847 5846 5845 5844 5843 5843 5842 5841 5841 5840 5840 5839 5838 5838 5837 5836 5835 5834 5833 5832 5830 5828 5827 5826 5825 5824 5824 5822 5820 5819 5819 5818 5818 5818 5818 5817 5817 5817 5817 5817 5817 5817 5816 5816 5816 5816 5816 5816 5816 5815 5815 5815 5815 5815 5814 5814 5814 5814 5815 5815 5815 5815 5814 5814 5814 5813 5812 5812 5812 5811 5811 5810 5810 5809 5809 5808 5808 5808 5807 5807
5849 5848 5848 5847 5847 5846 5845 5844 5843 5843 5842 5841 5840 5840 5839 5838 5838 5837 5836 5836 5835 5834 5833 5832 5831 5829 5828 5826 5825 5824 5823 5822 5821 5820 5818 5817 5816 5816 5816 5816 5816 5815 5815 5815 5815 5815 5815 5815 5815 5814 5814 5814 5814 5814 5814 5814 5814 5814 5813 5813 5813 5813 5813 5813 5814 5814 5814 5813 5813 5813 5812 5812 5812 5811 5811 5810 5810 5809 5809 5809 5808 5808 5807 5807 5807
5848 5847 5847 5846 5845 5845 5844 5843 5843 5842 5841 5840 5839 5838 5837 5837 5836 5835 5835 5834 5833 5833 5831 5830 5829 5828 5827 5825 5824 5823 5822 5821 5820 5819 5817 5816 5815 5814 5814 5813 5814 5814 5813 5813 5813 5813 5813 5813 5813 5813 5813 5812 5812 5812 5812 5812 5812 5812 5812 5812 5812 5812 5812 5812 5812 5812 5812 5812 5812 5812 5811 5811 5811 5810 5810 5810 5809 5809 5808 5808 5808 5807 5807 5807 5806
5846 5846 5845 5845 5844 5844 5843 5843 5842 5841 5840 5839 5838 5837 5836 5835 5834 5834 5833 5832 5832 5831 5830 5829 5828 5827 5826 5824 5823 5822 5821 5820 5818 5817 5816 5815 5813 5813 5812 5812 5811 5811 5812 5812 5811 5811 5812 5812 5811 5812 5811 5811 5811 5811 5811 5811 5811 5811 5810 5810 5810 5810 5810 5811 5811 5811 5811 5811 5811 5810 5810 5810 5810 5810 5809 5809 5809 5808 5808 5808 5807 5807 5806 5806 5806
5845 5844 5844 5844 5843 5843 5842 5842 5841 5840 5839 5838 5837 5836 5835 5834 5833 5832 5832 5831 5830 5829 5829 5828 5827 5825 5824 5823 5822 5821 5819 5818 5817 5816 5815 5814 5812 5811 5810 5810 5810 5810 5810 5810 5810 5810 5810 5810 5810 5810 5810 5810 5809 5809 5809 5809 5809 5809 5809 5809 5809 5809 5809 5809 5809 5809 5809 5809 5809 5809 5809 5809 5809 5809 5809 5808 5808 5807 5807 5807 5807 5806 5806 5806 5805
5844 5843 5843 5842 5841 5841 5841 5840 5840 5839 5838 5837 5836 5835 5834 5833 5832 5831 5830 5829 5828 5828 5827 5826 5825 5823 5822 5822 5820 5819 5818 5817 5816 5815 5814 5813 5811 5810 5809 5809 5809 5808 5808 5808 5808 5808 5808 5808 5808 5808 5808 5808 5808 5808 5807 5807 5807 5807 5807 5807 5807 5807 5807 5807 5808 5808 5808 5808 5808 5808 5808 5807 5807 5807 5808 5808 5807 5806 5806 5806 5806 5806 5806 5805 5805
5842 5842 5841 5840 5840 5839 5839 5839 5838 5837 5836 5835 5834 5833 5832 5831 5831 5830 5829 5828 5827 5826 5825 5824 5823 5821 5820 5820 5819 5818 5816 5815 5814 5813 5812 5811 5810 5808 5807 5807 5807 5807 5806 5806 5806 5807 5807 5806 5806 5806 5806 5806 5806 5806 5806 5805 5805 5805 5805 5805 5805 5805 5805 5805 5806 5806 5806 5806 5806 5806 5806 5806 5806 5806 5806 5807 5806 5806 5805 5805 5805 5805 5805 5805 5804
5841 5840 5839 5839 5838 5838 5837 5837 5836 5836 5835 5834 5833 5832 5831 5830 5829 5829 5828 5827 5826 5825 5824 5822 5821 5820 5818 5818 5817 5816 5815 5814 5812 5811 5810 5809 5808 5807 5805 5805 5805 5804 5804 5804 5804 5804 5804 5804 5804 5804 5804 5804 5804 5804 5804 5803 5803 5803 5803 5803 5803 5803 5803 5803 5804 5804 5805 5804 5804 5805 5805 5805 5805 5805 5805 5805 5805 5805 5805 5804 5804 5804 5804 5804 5804
5839 5838 5838 5837 5836 5836 5835 5835 5834 5834 5833 5832 5832 5831 5830 5829 5828 5827 5827 5826 5825 5824 5822 5821 5820 5818 5817 5816 5815 5814 5813 5812 5811 5810 5808 5807 5806 5805 5804 5803 5803 5802 5801 5801 5802 5801 5801 5801 5801 5801 5801 5801 5801 5802 5801 5801 5801 5801 5801 5801 5801 5801 5801 5801 5802 5802 5803 5803 5803 5803 5803 5803 5803 5803 5803 5804 5804 5804 5804 5804 5803 5803 5803 5803 5803
5837 5836 5836 5835 5834 5834 5833 5833 5832 5832 5831 5831 5830 5829 5828 5827 5827 5826 5825 5824 5823 5822 5821 5820 5818 5817 5815 5815 5814 5813 5812 5810 5809 5808 5807 5806 5805 5804 5803 5801 5800 5800 5799 5799 5799 5799 5798 5798 5799 5799 5799 5799 5799 5799 5799 5799 5798 5798 5798 5799 5799 5799 5799 5799 5799 5800 5801 5801 5801 5801 5801 5801 5801 5802 5802 5802 5803 5803 5803 5803 5802 5802 5802 5802 5802
5835 5835 5834 5833 5833 5832 5831 5831 5830 5830 5829 5829 5828 5827 5827 5826 5825 5824 5823 5822 5821 5820 5819 5818 5817 5815 5814 5813 5812 5811 5810 5809 5808 5807 5805 5804 5803 5802 5801 5800 5799 5798 5797 5797 5796 5796 5796 5795 5795 5795 5795 5795 5796 5796 5796 5796 5796 5796 5796 5796 5796 5796 5796 5796 5797 5798 5798 5799 5799 5799 5800 5800 5800 5800 5800 5801 5801 5801 5801 5801 5801 5801 5801 5801 5801
5833 5833 5832 5832 5831 5830 5830 5829 5829 5828 5828 5827 5827 5826 5825 5824 5823 5822 5821 5820 5819 5818 5817 5816 5815 5814 5813 5811 5810 5809 5808 5808 5807 5805 5804 5802 5801 5800 5799 5799 5798 5796 5796 5795 5794 5793 5793 5793 5792 5792 5792 5792 5792 5793 5793 5793 5793 5793 5793 5794 5794 5794 5794 5794 5794 5795 5796 5797 5797 5797 5798 5798 5798 5798 5799 5799 5799 5800 5800 5800 5800 5800 5800 5800 5800
5832 5831 5831 5830 5829 5829 5828 5828 5827 5826 5826 5825 5825 5824 5823 5823 5822 5821 5820 5818 5817 5816 5815 5814 5813 5812 5811 5810 5809 5808 5806 5805 5804 5803 5802 5801 5799 5798 5798 5797 5796 5795 5794 5793 5792 5791 5791 5790 5790 5789 5789 5788 5789 5789 5789 5789 5790 5790 5790 5791 5791 5792 5792 5792 5792 5793 5793 5794 5795 5795 5796 5796 5796 5797 5797 5797 5797 5798 5798 5798 5799 5799 5798 5799 5799
5830 5830 5829 5829 5828 5828 5827 5826 5825 5825 5824 5823 5823 5822 5822 5821 5820 5819 5818 5817 5815 5814 5813 5812 5811 5810 5809 5809 5808 5807 5805 5804 5802 5801 5799 5798 5797 5796 5795 5795 5794 5793 5792 5790 5789 5789 5788 5788 5787 5786 5786 5786 5785 5785 5786 5786 5787 5787 5787 5788 5788 5789 5789 5789 5789 5790 5791 5792 5792 5793 5793 5794 5795 5795 5795 5795 5796 5796 5796 5797 5797 5797 5797 5797 5797
5829 5828 5828 5827 5827 5826 5825 5824 5824 5823 5822 5821 5821 5820 5820 5820 5819 5818 5816 5815 5814 5813 5811 5810 5809 5808 5808 5807 5806 5806 5804 5803 5801 5800 5798 5796 5795 5794 5793 5792 5791 5790 5789 5788 5786 5786 5786 5785 5785 5784 5783 5783 5782 5782 5782 5783 5783 5784 5784 5784 5785 5786 5786 5786 5787 5787 5788 5789 5790 5791 5791 5792 5792 5793 5793 5793 5794 5794 5794 5795 5795 5795 5795 5795 5796
5827 5827 5826 5826 5825 5824 5824 5823 5822 5821 5820 5819 5819 5818 5818 5817 5817 5816 5815 5814 5813 5811 5810 5808 5807 5806 5806 5805 5804 5804 5803 5802 5800 5799 5797 5795 5793 5792 5791 5790 5788 5787 5786 5785 5784 5783 5782 5782 5781 5781 5781 5780 5779 5779 5779 5779 5780 5780 5781 5781 5782 5783 5783 5783 5784 5785 5785 5786 5787 5788 5788 5789 5790 5790 5791 5791 5792 5792 5792 5793 5793 5794 5793 5793 5794
5825 5825 5824 5824 5823 5822 5821 5821 5820 5819 5818 5818 5817 5816 5816 5815 5814 5814 5812 5812 5811 5810 5808 5807 5806 5805 5804 5803 5802 5801 5801 5800 5799 5797 5796 5795 5793 5790 5789 5788 5787 5785 5783 5782 5781 5780 5779 5778 5778 5777 5777 5777 5776 5776 5776 5776 5776 5776 5777 5778 5778 5779 5780 5780 5781 5782 5782 5783 5784 5785 5786 5787 5787 5788 5789 5789 5789 5790 5790 5790 5791 5792 5792 5792 5792
5823 5822 5822 5821 5821 5820 5819 5819 5818 5817 5816 5816 5815 5814 5814 5813 5812 5811 5810 5809 5808 5807 5806 5805 5804 5803 5802 5801 5800 5799 5799 5798 5796 5795 5794 5793 5792 5790 5787 5785 5784 5782 5781 5780 5778 5777 5776 5775 5774 5774 5774 5773 5773 5772 5772 5772 5772 5773 5773 5774 5774 5775 5776 5777 5778 5779 5779 5780 5781 5782 5783 5784 5785 5785 5786 5787 5787 5787 5788 5788 5789 5790 5790 5790 5790
5821 5820 5820 5819 5818 5818 5817 5816 5816 5815 5814 5813 5813 5812 5811 5810 5809 5808 5807 5807 5806 5805 5804 5803 5802 5801 5800 5799 5798 5797 5796 5795 5794 5793 5792 5791 5790 5788 5786 5784 5782 5780 5778 5778 5777 5774 5772 5771 5771 5770 5770 5769 5768 5768 5768 5769 5769 5769 5770 5770 5771 5771 5773 5774 5774 5775 5776 5777 5778 5779 5780 5781 5782 5783 5783 5784 5785 5785 5785 5786 5787 5787 5788 5788 5788
5819 5818 5818 5817 5816 5815 5815 5814 5813 5812 5812 5811 5810 5809 5809 5808 5807 5806 5805 5804 5803 5802 5801 5800 5800 5799 5798 5797 5796 5795 5794 5793 5791 5790 5789 5788 5787 5786 5784 5782 5781 5778 5775 5775 5774 5772 5769 5768 5767 5766 5766 5765 5765 5764 5764 5765 5765 5765 5766 5766 5767 5767 5769 5770 5770 5771 5772 5773 5775 5776 5777 5778 5779 5779 5780 5781 5782 5783 5783 5784 5784 5785 5785 5786 5786
5817 5816 5815 5815 5814 5813 5813 5812 5811 5810 5809 5808 5808 5807 5806 5805 5804 5803 5802 5801 5800 5799 5798 5797 5796 5796 5795 5794 5793 5792 5791 5790 5789 5787 5787 5786 5784 5783 5781 5779 5778 5776 5773 5772 5771 5769 5767 5764 5763 5762 5762 5761 5761 5761 5761 5761 5761 5762 5762 5763 5763 5764 5765 5766 5767 5768 5769 5770 5771 5772 5774 5775 5775 5776 5777 5778 5779 5780 5781 5781 5782 5782 5783 5783 5784
5814 5814 5813 5813 5812 5811 5810 5810 5809 5808 5807 5806 5805 5804 5803 5802 5801 5800 5799 5798 5797 5796 5795 5794 5793 5793 5792 5791 5790 5790 5788 5787 5786 5784 5783 5782 5781 5780 5778 5777 5775 5774 5771 5769 5768 5766 5764 5762 5760 5759 5758 5757 5757 5757 5757 5757 5757 5758 5758 5759 5759 5760 5761 5762 5763 5764 5765 5766 5767 5768 5770 5772 5772 5773 5774 5775 5776 5777 5778 5778 5779 5780 5780 5781 5781
5812 5811 5811 5810 5810 5809 5808 5807 5806 5805 5804 5803 5802 5801 5800 5799 5798 5797 5796 5795 5794 5793 5792 5791 5790 5789 5789 5788 5787 5786 5785 5784 5783 5781 5780 5779 5777 5776 5775 5774 5772 5771 5768 5766 5765 5763 5761 5759 5757 5755 5754 5753 5753 5753 5754 5753 5753 5754 5754 5755 5755 5755 5756 5757 5759 5760 5761 5763 5764 5765 5766 5768 5768 5770 5771 5772 5773 5774 5775 5776 5776 5777 5778 5778 5779
5809 5809 5808 5808 5807 5806 5805 5805 5804 5802 5801 5800 5799 5798 5797 5796 5795 5794 5793 5792 5791 5790 5789 5788 5787 5786 5785 5785 5784 5783 5782 5781 5779 5778 5776 5775 5774 5773 5771 5770 5769 5767 5765 5763 5762 5759 5757 5755 5754 5752 5750 5750 5749 5749 5750 5750 5749 5749 5750 5751 5751 5751 5752 5753 5754 5755 5756 5758 5760 5761 5762 5763 5765 5766 5768 5769 5770 5771 5772 5773 5773 5774 5775 5775 5776
5807 5806 5806 5805 5804 5803 5802 5801 5801 5800 5798 5797 5796 5795 5794 5793 5792 5791 5790 5789 5788 5787 5786 5785 5784 5783 5782 5781 5780 5779 5778 5777 5776 5774 5773 5771 5770 5769 5767 5766 5765 5764 5763 5761 5759 5756 5754 5753 5751 5749 5747 5746 5746 5746 5746 5746 5745 5745 5746 5747 5747 5748 5748 5748 5750 5751 5752 5753 5755 5756 5758 5759 5761 5763 5764 5765 5766 5767 5768 5769 5770 5771 5772 5772 5773
5805 5804 5803 5802 5801 5800 5800 5798 5798 5797 5796 5794 5793 5792 5791 5790 5789 5788 5787 5786 5785 5784 5783 5782 5781 5779 5778 5777 5776 5775 5774 5773 5772 5770 5769 5768 5766 5765 5763 5762 5761 5760 5759 5758 5757 5753 5750 5749 5748 5746 5744 5742 5742 5742 5742 5742 5742 5741 5742 5742 5743 5744 5745 5745 5746 5746 5747 5749 5751 5752 5754 5755 5757 5759 5760 5761 5762 5764 5765 5766 5767 5768 5769 5769 5770
5802 5801 5800 5800 5799 5798 5797 5796 5795 5794 5793 5792 5790 5789 5788 5787 5786 5784 5783 5782 5781 5780 5779 5778 5777 5776 5774 5773 5772 5771 5770 5769 5768 5766 5765 5764 5762 5761 5759 5758 5756 5756 5755 5754 5754 5751 5747 5746 5744 5742 5740 5739 5737 5737 5737 5738 5738 5737 5737 5738 5739 5740 5741 5741 5741 5742 5743 5744 5746 5748 5749 5751 5753 5755 5756 5757 5758 5760 5761 5762 5763 5764 5765 5766 5767
5799 5798 5798 5797 5796 5795 5794 5793 5792 5791 5790 5788 5787 5786 5785 5784 5782 5781 5780 5779 5778 5776 5775 5774 5773 5772 5770 5769 5768 5767 5766 5765 5763 5762 5761 5759 5758 5756 5755 5754 5752 5752 5750 5749 5750 5748 5743 5742 5741 5738 5737 5735 5733 5732 5732 5733 5733 5733 5733 5734 5735 5736 5736 5736 5736 5738 5739 5740 5741 5743 5744 5746 5749 5751 5752 5752 5754 5756 5757 5758 5759 5761 5762 5763 5764
5797 5796 5795 5794 5793 5792 5791 5790 5789 5787 5786 5785 5784 5782 5781 5780 5779 5777 5776 5775 5774 5773 5771 5770 5769 5768 5766 5764 5763 5762 5761 5760 5758 5757 5756 5755 5753 5752 5750 5749 5748 5747 5746 5744 5745 5744 5740 5737 5737 5735 5733 5731 5729 5728 5727 5728 5728 5728 5728 5729 5730 5731 5732 5732 5732 5733 5735 5735 5736 5738 5740 5741 5744 5746 5747 5748 5750 5751 5753 5754 5755 5757 5758 5759 5760
5794 5793 5792 5791 5789 5788 5787 5786 5785 5784 5783 5781 5780 5779 5777 5776 5775 5773 5772 5771 5769 5768 5767 5765 5764 5763 5762 5760 5758 5757 5757 5756 5754 5752 5751 5750 5748 5747 5746 5745 5743 5742 5742 5740 5740 5740 5737 5733 5732 5731 5729 5727 5725 5723 5723 5723 5723 5723 5724 5724 5725 5726 5726 5728 5728 5729 5730 5731 5732 5733 5735 5737 5739 5741 5743 5744 5745 5747 5749 5751 5752 5753 5754 5755 5756
5790 5790 5789 5787 5786 5785 5784 5782 5781 5780 5779 5777 5776 5775 5773 5772 5770 5769 5768 5766 5765 5764 5762 5761 5760 5758 5757 5756 5754 5752 5751 5751 5749 5747 5746 5745 5743 5742 5741 5740 5739 5737 5736 5735 5734 5734 5733 5730 5728 5727 5725 5723 5721 5719 5718 5718 5718 5718 5718 5719 5720 5721 5722 5722 5724 5724 5725 5726 5728 5729 5731 5732 5734 5736 5738 5739 5741 5743 5745 5746 5747 5748 5750 5751 5752
5787 5786 5785 5784 5783 5781 5780 5778 5777 5776 5774 5773 5772 5770 5769 5767 5766 5764 5763 5762 5761 5759 5758 5756 5755 5754 5752 5751 5749 5748 5746 5745 5744 5742 5741 5740 5738 5737 5736 5735 5734 5733 5731 5730 5729 5729 5728 5726 5724 5722 5720 5719 5717 5714 5713 5713 5713 5713 5714 5714 5715 5716 5717 5717 5718 5718 5719 5721 5723 5724 5726 5728 5729 5731 5733 5735 5737 5738 5740 5742 5743 5744 5745 5747 5748
5784 5783 5782 5780 5779 5778 5776 5775 5773 5772 5770 5769 5767 5766 5764 5763 5761 5760 5759 5757 5756 5755 5753 5752 5750 5749 5747 5746 5744 5743 5741 5740 5738 5737 5736 5734 5733 5732 5731 5730 5729 5728 5727 5726 5724 5723 5723 5722 5720 5718 5716 5715 5713 5710 5708 5708 5708 5709 5709 5709 5709 5711 5712 5711 5711 5712 5714 5717 5718 5720 5722 5724 5725 5727 5728 5730 5732 5734 5736 5737 5738 5739 5741 5742 5743
5781 5779 5778 5777 5775 5774 5772 5771 5769 5768 5766 5765 5763 5761 5760 5758 5757 5755 5754 5752 5751 5749 5748 5746 5745 5743 5742 5740 5739 5737 5736 5734 5733 5731 5730 5729 5727 5726 5725 5724 5723 5723 5722 5721 5719 5717 5717 5717 5716 5714 5712 5710 5709 5707 5704 5703 5704 5704 5705 5705 5705 5706 5707 5706 5706 5707 5709 5712 5714 5715 5717 5719 5720 5722 5723 5725 5727 5729 5731 5732 5733 5735 5736 5738 5739
5777 5776 5774 5773 5771 5770 5768 5767 5765 5763 5762 5760 5758 5757 5755 5753 5752 5750 5749 5747 5746 5744 5742 5741 5739 5738 5736 5734 5733 5731 5730 5728 5727 5726 5724 5723 5722 5721 5720 5719 5718 5717 5716 5715 5714 5712 5712 5712 5711 5709 5708 5706 5704 5703 5700 5699 5699 5699 5700 5700 5700 5701 5702 5702 5703 5704 5706 5708 5710 5712 5713 5714 5716 5717 5719 5721 5722 5724 5726 5727 5729 5730 5732 5734 5735
5773 5772 5770 5769 5767 5765 5764 5762 5760 5759 5757 5755 5753 5752 5750 5748 5747 5745 5744 5742 5740 5738 5737 5735 5733 5732 5730 5728 5727 5725 5724 5722 5721 5720 5718 5717 5716 5715 5714 5713 5712 5711 5710 5710 5708 5707 5706 5706 5705 5704 5703 5702 5700 5698 5696 5694 5694 5694 5695 5695 5696 5697 5697 5698 5699 5700 5702 5704 5706 5708 5709 5710 5711 5712 5714 5716 5718 5719 5720 5722 5724 5726 5727 5730 5731
5769 5768 5766 5765 5763 5761 5759 5758 5756 5754 5752 5750 5748 5747 5745 5743 5742 5740 5738 5736 5735 5733 5731 5729 5727 5725 5724 5722 5721 5719 5717 5716 5715 5714 5712 5711 5710 5709 5708 5707 5706 5705 5704 5704 5703 5702 5701 5701 5700 5699 5698 5697 5696 5694 5692 5690 5690 5690 5689 5690 5691 5692 5692 5693 5694 5696 5698 5700 5702 5703 5704 5705 5705 5706 5707 5709 5712 5714 5715 5717 5719 5721 5723 5725 5726
5765 5764 5762 5760 5759 5757 5755 5753 5751 5749 5747 5745 5744 5742 5740 5739 5737 5735 5733 5731 5729 5727 5725 5723 5721 5719 5717 5715 5714 5713 5711 5710 5708 5707 5705 5704 5703 5702 5701 5700 5699 5698 5698 5697 5697 5696 5695 5695 5695 5694 5693 5693 5691 5690 5688 5686 5685 5685 5685 5685 5686 5687 5687 5688 5689 5691 5693 5695 5697 5698 5699 5700 5701 5701 5702 5704 5706 5708 5710 5712 5714 5716 5718 5719 5721
5761 5760 5758 5756 5754 5752 5750 5748 5746 5744 5742 5740 5739 5737 5735 5733 5731 5729 5727 5725 5722 5720 5718 5716 5714 5713 5711 5709 5707 5705 5704 5702 5701 5700 5698 5697 5696 5696 5695 5694 5693 5692 5691 5691 5690 5690 5689 5689 5689 5688 5687 5687 5687 5685 5684 5682 5681 5681 5681 5681 5681 5681 5681 5683 5684 5685 5687 5690 5691 5693 5694 5696 5697 5697 5698 5700 5702 5704 5705 5707 5709 5711 5712 5714 5715
5757 5756 5754 5752 5750 5748 5746 5743 5741 5739 5737 5735 5733 5731 5729 5727 5725 5723 5721 5719 5716 5714 5712 5710 5708 5706 5704 5702 5700 5698 5696 5695 5693 5692 5691 5690 5689 5689 5688 5688 5687 5686 5685 5685 5684 5684 5683 5683 5683 5682 5681 5682 5682 5680 5679 5678 5677 5676 5676 5675 5675 5676 5676 5677 5678 5679 5682 5684 5686 5688 5690 5691 5692 5693 5694 5696 5698 5699 5700 5701 5704 5706 5707 5708 5709
5753 5751 5750 5747 5745 5743 5741 5739 5737 5734 5732 5730 5728 5726 5723 5721 5719 5716 5714 5712 5710 5707 5705 5703 5701 5699 5697 5695 5693 5691 5689 5687 5685 5684 5683 5682 5681 5681 5680 5680 5680 5679 5679 5678 5678 5678 5677 5677 5677 5676 5675 5676 5676 5675 5674 5673 5672 5671 5671 5670 5670 5671 5671 5672 5672 5673 5677 5679 5681 5683 5685 5687 5688 5689 5690 5691 5693 5694 5695 5696 5698 5700 5702 5703 5704
5749 5747 5745 5743 5741 5739 5737 5734 5732 5730 5727 5725 5723 5720 5718 5715 5713 5710 5708 5705 5703 5701 5698 5696 5694 5691 5689 5687 5685 5683 5681 5679 5677 5676 5675 5673 5673 5672 5672 5671 5672 5672 5671 5671 5671 5671 5671 5671 5671 5670 5669 5669 5671 5670 5669 5668 5668 5667 5666 5665 5665 5666 5666 5668 5668 5669 5672 5674 5675 5677 5679 5682 5683 5684 5686 5687 5687 5688 5690 5691 5693 5695 5697 5698 5700
5744 5742 5740 5738 5736 5734 5732 5729 5727 5725 5722 5720 5717 5714 5712 5709 5707 5704 5702 5699 5697 5694 5692 5689 5687 5684 5682 5679 5677 5675 5673 5671 5669 5667 5666 5665 5664 5663 5663 5663 5663 5663 5664 5664 5664 5664 5665 5665 5665 5665 5664 5663 5664 5664 5663 5663 5663 5663 5662 5661 5660 5661 5661 5663 5663 5664 5666 5668 5671 5672 5674 5677 5678 5679 5681 5682 5682 5683 5685 5686 5688 5690 5691 5693 5694
5740 5738 5736 5734 5731 5729 5727 5724 5722 5719 5717 5715 5712 5709 5706 5704 5701 5698 5696 5693 5690 5687 5684 5682 5679 5676 5674 5671 5669 5666 5664 5662 5660 5658 5656 5655 5655 5654 5654 5654 5655 5655 5656 5657 5657 5657 5657 5658 5658 5658 5658 5657 5657 5658 5658 5657 5658 5658 5657 5656 5656 5656 5656 5657 5658 5660 5661 5663 5665 5667 5669 5672 5673 5675 5677 5678 5679 5679 5680 5682 5683 5684 5686 5687 5688
5735 5733 5731 5729 5727 5724 5722 5720 5717 5715 5712 5710 5707 5704 5701 5698 5696 5693 5690 5687 5684 5681 5677 5674 5671 5668 5665 5663 5660 5657 5655 5653 5651 5649 5648 5647 5646 5646 5646 5646 5646 5647 5648 5649 5649 5649 5650 5651 5651 5652 5652 5651 5651 5652 5652 5652 5652 5652 5652 5652 5651 5651 5651 5651 5653 5655 5656 5658 5660 5662 5664 5667 5668 5670 5671 5673 5674 5674 5675 5677 5678 5679 5680 5681 5681
5731 5729 5727 5724 5722 5720 5718 5715 5713 5710 5707 5705 5702 5699 5696 5693 5690 5687 5684 5681 5677 5674 5671 5667 5664 5660 5657 5654 5651 5648 5645 5643 5641 5640 5638 5637 5637 5637 5637 5637 5638 5639 5641 5641 5642 5642 5643 5643 5644 5645 5645 5645 5645 5646 5646 5646 5646 5647 5647 5647 5646 5646 5646 5646 5647 5649 5651 5652 5654 5656 5658 5661 5663 5664 5665 5667 5668 5669 5670 5671 5672 5673 5675 5676 5675
5727 5725 5723 5720 5718 5716 5713 5711 5708 5705 5703 5700 5697 5694 5691 5688 5685 5682 5679 5675 5671 5667 5664 5660 5656 5652 5649 5645 5642 5638 5636 5633 5631 5629 5628 5628 5628 5628 5628 5629 5630 5632 5633 5634 5634 5635 5636 5637 5637 5638 5639 5639 5639 5640 5640 5640 5640 5641 5642 5642 5641 5641 5641 5641 5642 5643 5645 5646 5648 5650 5652 5654 5656 5658 5660 5662 5663 5663 5664 5666 5666 5666 5668 5669 5669
5722 5720 5718 5716 5714 5712 5709 5707 5704 5701 5699 5696 5693 5690 5687 5684 5681 5677 5674 5670 5666 5662 5658 5653 5649 5645 5641 5637 5633 5629 5626 5624 5622 5620 5618 5618 5618 5619 5620 5621 5623 5624 5625 5626 5627 5628 5629 5630 5631 5632 5633 5633 5633 5634 5634 5634 5635 5635 5636 5637 5636 5636 5636 5636 5636 5638 5639 5640 5642 5645 5646 5648 5650 5652 5654 5656 5657 5657 5659 5661 5661 5660 5660 5661 5663